Weather Roundup
Issued by NWS Springfield, MO

Home | Current Version | Previous Version | Text Only | Print | Product List | Glossary On
Versions: 1 2 3 4 5 6 7 8 9 10 11 12 13 14 15 16 17 18 19 20 21 22 23 24 25 26 27 28 29 30 31 32 33 34 35 36 37 38 39 40 41 42 43 44 45 46 47 48 49 50
000
NZUS99 KSGF 191607
HRRSGF

HOURLY WEATHER
NATIONAL WEATHER SERVICE SPRINGFIELD MO
1000 AM CST FRI DEC 19 2014

......SGF CWA......

CITY           SKY/WX    TMP DP  RH WIND       PRES   REMARKS
SPRINGFIELD    CLOUDY    38  35  89 SE5       30.25R WCI  34
JOPLIN         FOG       36  36 100 NE5       30.26R VSB 1/2 WCI  32
WEST PLAINS    CLOUDY    34  33  96 E5        30.27S FOG     WCI  30
ROLLA          CLOUDY    33  31  92 SE7       30.26S WCI  27
OSAGE BEACH    CLOUDY    36  32  87 SE5       30.27F WCI  32
BRANSON        FOG       37  37 100 CALM      30.26R VSB 1/8

......SURROUNDING SGF CWA......

CITY           SKY/WX    TMP DP  RH WIND       PRES   REMARKS
CHANUTE        CLOUDY    35  33  92 N5        30.27S FOG     WCI  31
PARSONS        CLOUDY    37  34  89 N5        30.28S WCI  33
COFFEYVILLE    CLOUDY    37  34  89 VRB3      30.27R FOG
EMPORIA        CLOUDY    29  27  92 SE3       30.27S
GROVE OK       CLOUDY    39  39 100 CALM      30.27S FOG
ROGERS AR      CLOUDY    39  38  96 E7        30.23F WCI  34
SILOAM SPRINGS CLOUDY    39  36  87 CALM      30.24S VSB 1/2
HARRISON AR    FOG       37  37 100 SE5       30.24R VSB 1/4 WCI  33
NEAR YELLVILLE CLOUDY    37  34  87 E5        30.27S WCI  34

......KANSAS AND MISSOURI......

CITY           SKY/WX    TMP DP  RH WIND       PRES   REMARKS
KANSAS CTY INT CLOUDY    30  29  96 SE6       30.28R FOG     WCI  24
DOWNTOWN KC    CLOUDY    32  29  88 E7        30.29R WCI  26
COLUMBIA       CLOUDY    34  31  88 SE6       30.29S WCI  29
SEDALIA        CLOUDY    35  32  88 E5        30.28S FOG     WCI  31
ST JOSEPH      CLOUDY    30  28  92 SE3       30.30R
ST LOUIS       PTSUNNY   34  26  72 E5        30.34R WCI  30
SPIRIT OF STL  CLOUDY    34  28  79 E3        30.34R
KIRKSVILLE     CLOUDY    30  28  92 SE6       30.30R FOG     WCI  24
WICHITA        CLOUDY    32  29  88 S6        30.26R FOG     WCI  26
TOPEKA         CLOUDY    31  28  89 SE6       30.30R FOG     WCI  25
OLATHE         CLOUDY    31  30  96 SE5       30.27R FOG     WCI  26

......TENNESSEE......

CITY           SKY/WX    TMP DP  RH WIND       PRES   REMARKS
MEMPHIS        CLOUDY    42  33  70 E7        30.28R
NASHVILLE      CLOUDY    37  28  70 N6        30.29R WCI  32

......ARKANSAS.......

CITY           SKY/WX    TMP DP  RH WIND       PRES   REMARKS
FAYETTEVILLE   FOG       40  40 100 E3        30.23S VSB 1/4
FT SMITH       CLOUDY    42  38  85 E7        30.25S FOG
LITTLE ROCK    CLOUDY    43  37  79 E9        30.29R

......OKLAHOMA.......

CITY           SKY/WX    TMP DP  RH WIND       PRES   REMARKS
TULSA          CLOUDY    37  35  92 N8        30.28R WCI  31
PONCA CITY     CLOUDY    35  32  88 NE6       30.27R WCI  30
MCALESTER      FOG       43  41  93 N7        30.25R VSB 3/4
OKLAHOMA CITY  DRIZZLE   40  36  86 NE5       30.24R FOG

......IOWA............

CITY           SKY/WX    TMP DP  RH WIND       PRES   REMARKS
DES MOINES     CLOUDY    30  26  85 SE7       30.29R FOG     WCI  23
QUAD CITIES    CLOUDY    26  20  77 E5        30.35R WCI  20

......ILLINOIS........

CITY           SKY/WX    TMP DP  RH WIND       PRES   REMARKS
QUINCY         CLOUDY    30  23  75 E5        30.31S WCI  25
CHICAGO        CLOUDY    29  20  69 NW6       30.32R WCI  23




USA.gov is the U.S. government's official web portal to all federal, state and local government web resources and services.